Location: *
(43.4667°N, 11.6833°E)
Time: 00:27:27
(UTC+00:00)

Sich 1 - Pass Details

Date: 19 July 2019
Orbit: 595 x 625 km, 82.5° (Epoch: 23 August)

Event Time Altitude Azimuth Distance (km) Brightness Sun altitude
Exits shadow 21:28:45 54° 190° (S) 734 3.1 -20.9°
Maximum altitude 21:29:43 88° 273° (W) 605 2.9 -21.0°
Drops below altitude 10° 21:34:01 10° 8° (N) 1,943 6.4 -21.3°
Sets 21:36:14 0° 9° (N) 2,848 7.4 -21.5°
